Location: Jackson Park
(37.2862°N, 79.9123°W)
Time: 19:50:41
(UTC+00:00)

Vanguard 3 - Pass Details

Date: 15 May 2026
Orbit: 507 x 3205 km, 33.4° (Epoch: 31 May)

Event Time Altitude Azimuth Distance (km) Brightness Sun altitude
Rises 23:02:34 0° 279° (W) 7,154 13.9 14.0°
Reaches altitude 10° 23:07:35 10° 277° (W) 6,066 14.2 13.0°
Maximum altitude 23:25:44 64° 202° (SSW) 2,688 10.0 9.6°
Drops below altitude 10° 23:37:17 10° 124° (SE) 4,045 10.1 7.4°
Sets 23:39:56 0° 121° (ESE) 4,733 10.4 6.9°
